Weather History for Cairo, IL

Change the Weather History Date:

Monday, November 7, 2011

  Actual Average Record
Temperature  
Mean Temperature 66 °F -  
Max Temperature 73 °F 57 °F 78 °F (1980)
Min Temperature 59 °F 41 °F 18 °F (1993)
Cooling Degree Days 1    
Growing Degree Days 16 (Base 50)    
Moisture  
Dew Point 52 °F    
Average Humidity 61    
Maximum Humidity 72    
Minimum Humidity 50    
Precipitation  
Precipitation 0.00 in - - ()
Sea Level Pressure  
Sea Level Pressure 30.20 in    
Wind  
Wind Speed 8 mph (South)    
Max Wind Speed 13 mph    
Max Gust Speed 18 mph    
Visibility 10 miles    
Events      
Averages and records for this station are not official NWS values.
T = Trace of Precipitation, MM = Missing Value Source: NWS Daily Summary

Daily Weather History Graph

Daily Weather History Graph

Search for Another Location

Airport:

Trip Planner

Search our weather history database for the weather conditions in past years. The results will help you decide how hot, cold, wet, or windy it might be!

Date:

Astronomy

Nov. 07, 2011 Rise Set
Actual Time 6:26 AM CST 4:53 PM CST
Civil Twilight 5:59 AM CST 5:20 PM CST
Nautical Twilight 5:28 AM CST 5:51 PM CST
Astronomical Twilight 4:58 AM CST 6:22 PM CST
Moon 3:02 PM CST (11/7) 3:32 AM CST (11/7)
Length of Visible Light 11h 21m
Length of Day
10h 26m
Waxing Gibbous, 92% of the Moon is Illuminated
Nov 7
Waxing Gibbous
Nov 10
Full
Nov 18
Last Quarter
Nov 25
New
Dec 2
First Quarter

Hourly Weather History & Observations

Time (CST) Temp. Dew Point Humidity Pressure Visibility Wind Dir Wind Speed Gust Speed Precip Events Conditions
12:15 AM 62.6 °F 48.2 °F 59% 30.21 in 10.0 mi SSE 8.1 mph - N/A   Overcast
12:35 AM 62.6 °F 48.2 °F 59% 30.20 in 10.0 mi South 6.9 mph - N/A   Overcast
1:15 AM 60.8 °F 48.2 °F 63% 30.20 in 10.0 mi South 8.1 mph - N/A   Mostly Cloudy
1:35 AM 60.8 °F 48.2 °F 63% 30.21 in 10.0 mi South 9.2 mph - N/A   Overcast
1:55 AM 60.8 °F 48.2 °F 63% 30.21 in 10.0 mi South 9.2 mph - N/A   Overcast
2:15 AM 60.8 °F 48.2 °F 63% 30.21 in 10.0 mi South 9.2 mph - N/A   Overcast
2:35 AM 60.8 °F 48.2 °F 63% 30.21 in 10.0 mi SSE 10.4 mph - N/A   Overcast
2:55 AM 60.8 °F 48.2 °F 63% 30.21 in 10.0 mi SSE 10.4 mph - N/A   Overcast
3:15 AM 60.8 °F 50.0 °F 68% 30.21 in 10.0 mi SSE 8.1 mph - N/A   Overcast
3:35 AM 60.8 °F 50.0 °F 68% 30.21 in 10.0 mi SSE 6.9 mph - N/A   Overcast
3:55 AM 60.8 °F 50.0 °F 68% 30.21 in 10.0 mi SSE 9.2 mph - N/A   Overcast
4:15 AM 60.8 °F 50.0 °F 68% 30.21 in 10.0 mi SSE 9.2 mph - N/A   Overcast
4:35 AM 60.8 °F 50.0 °F 68% 30.21 in 10.0 mi South 5.8 mph - N/A   Mostly Cloudy
4:55 AM 60.8 °F 50.0 °F 68% 30.22 in 10.0 mi SSE 6.9 mph - N/A   Overcast
5:15 AM 60.8 °F 50.0 °F 68% 30.22 in 10.0 mi South 6.9 mph - N/A   Overcast
5:35 AM 60.8 °F 50.0 °F 68% 30.23 in 10.0 mi South 6.9 mph - N/A   Overcast
5:55 AM 60.8 °F 50.0 °F 68% 30.23 in 10.0 mi South 10.4 mph - N/A   Overcast
6:15 AM 60.8 °F 50.0 °F 68% 30.23 in 10.0 mi South 8.1 mph - N/A   Overcast
6:35 AM 59.0 °F 50.0 °F 72% 30.23 in 10.0 mi SSE 9.2 mph - N/A   Scattered Clouds
6:55 AM 59.0 °F 50.0 °F 72% 30.23 in 10.0 mi SSE 8.1 mph - N/A   Clear
7:15 AM 59.0 °F 50.0 °F 72% 30.24 in 10.0 mi South 5.8 mph - N/A   Clear
7:35 AM 60.8 °F 50.0 °F 68% 30.24 in 10.0 mi South 5.8 mph - N/A   Clear
7:55 AM 60.8 °F 51.8 °F 72% 30.24 in 10.0 mi South 9.2 mph - N/A   Clear
8:15 AM 60.8 °F 51.8 °F 72% 30.25 in 10.0 mi South 9.2 mph - N/A   Clear
8:35 AM 62.6 °F 51.8 °F 68% 30.25 in 10.0 mi South 6.9 mph - N/A   Clear
8:55 AM 62.6 °F 51.8 °F 68% 30.26 in 10.0 mi South 9.2 mph - N/A   Scattered Clouds
9:15 AM 66.2 °F 51.8 °F 60% 30.26 in 10.0 mi South 11.5 mph - N/A   Scattered Clouds
9:35 AM 66.2 °F 51.8 °F 60% 30.25 in 10.0 mi South 10.4 mph - N/A   Scattered Clouds
9:55 AM 66.2 °F 51.8 °F 60% 30.25 in 10.0 mi SSW 6.9 mph 17.3 mph N/A   Mostly Cloudy
10:15 AM 68.0 °F 53.6 °F 60% 30.25 in 10.0 mi SSW 11.5 mph 18.4 mph N/A   Scattered Clouds
10:35 AM 68.0 °F 53.6 °F 60% 30.26 in 10.0 mi SSW 9.2 mph - N/A   Scattered Clouds
10:55 AM 68.0 °F 53.6 °F 60% 30.25 in 10.0 mi SSW 8.1 mph - N/A   Overcast
11:15 AM 69.8 °F 53.6 °F 56% 30.24 in 10.0 mi SSW 9.2 mph 17.3 mph N/A   Overcast
11:35 AM 69.8 °F 53.6 °F 56% 30.23 in 10.0 mi SSW 11.5 mph 17.3 mph N/A   Overcast
11:55 AM 69.8 °F 53.6 °F 56% 30.22 in 10.0 mi SW 8.1 mph - N/A   Mostly Cloudy
12:15 PM 69.8 °F 53.6 °F 56% 30.20 in 10.0 mi SSW 9.2 mph - N/A   Overcast
12:35 PM 73.4 °F 53.6 °F 50% 30.19 in 10.0 mi SSW 12.7 mph - N/A   Mostly Cloudy
12:55 PM 73.4 °F 53.6 °F 50% 30.18 in 10.0 mi SSW 11.5 mph - N/A   Scattered Clouds
1:15 PM 73.4 °F 53.6 °F 50% 30.16 in 10.0 mi SSW 6.9 mph - N/A   Scattered Clouds
1:35 PM 71.6 °F 53.6 °F 53% 30.16 in 10.0 mi South 5.8 mph - N/A   Mostly Cloudy
1:55 PM 73.4 °F 53.6 °F 50% 30.15 in 10.0 mi South 9.2 mph - N/A   Overcast
2:15 PM 73.4 °F 53.6 °F 50% 30.15 in 10.0 mi SSW 9.2 mph - N/A   Mostly Cloudy
2:35 PM 73.4 °F 53.6 °F 50% 30.15 in 10.0 mi South 4.6 mph - N/A   Mostly Cloudy
2:55 PM 73.4 °F 53.6 °F 50% 30.14 in 10.0 mi South 9.2 mph - N/A   Scattered Clouds
3:15 PM 73.4 °F 53.6 °F 50% 30.14 in 10.0 mi South 9.2 mph - N/A   Scattered Clouds
3:35 PM 73.4 °F 53.6 °F 50% 30.14 in 10.0 mi South 8.1 mph - N/A   Scattered Clouds
3:55 PM 73.4 °F 53.6 °F 50% 30.13 in 10.0 mi SSE 8.1 mph - N/A   Clear
4:15 PM 71.6 °F 53.6 °F 53% 30.14 in 10.0 mi SSE 6.9 mph - N/A   Clear
4:35 PM 69.8 °F 53.6 °F 56% 30.14 in 10.0 mi SSE 6.9 mph - N/A   Clear
4:55 PM 69.8 °F 53.6 °F 56% 30.15 in 10.0 mi SSE 6.9 mph - N/A   Clear
5:15 PM 66.2 °F 53.6 °F 64% 30.14 in 10.0 mi SE 6.9 mph - N/A   Clear
5:35 PM 66.2 °F 53.6 °F 64% 30.14 in 10.0 mi SE 6.9 mph - N/A   Clear
5:55 PM 66.2 °F 53.6 °F 64% 30.14 in 10.0 mi SE 5.8 mph - N/A   Clear
6:15 PM 64.4 °F 53.6 °F 68% 30.14 in 10.0 mi SSE 5.8 mph - N/A   Clear
6:35 PM 62.6 °F 51.8 °F 68% 30.13 in 10.0 mi SE 5.8 mph - N/A   Clear
6:55 PM 62.6 °F 51.8 °F 68% 30.13 in 10.0 mi ESE 5.8 mph - N/A   Clear
7:15 PM 60.8 °F 51.8 °F 72% 30.13 in 10.0 mi SE 5.8 mph - N/A   Clear
7:35 PM 60.8 °F 53.6 °F 77% 30.13 in 10.0 mi SE 5.8 mph - N/A   Clear
7:55 PM 62.6 °F 53.6 °F 72% 30.13 in 10.0 mi SSE 8.1 mph - N/A   Clear
8:15 PM 62.6 °F 53.6 °F 72% 30.13 in 10.0 mi SE 6.9 mph - N/A   Clear
8:35 PM 62.6 °F 53.6 °F 72% 30.13 in 10.0 mi SE 6.9 mph - N/A   Clear
8:55 PM 64.4 °F 51.8 °F 64% 30.13 in 10.0 mi SSE 8.1 mph - N/A   Clear
9:15 PM 64.4 °F 51.8 °F 64% 30.13 in 10.0 mi SSE 8.1 mph - N/A   Clear
9:35 PM 64.4 °F 51.8 °F 64% 30.14 in 10.0 mi SSE 8.1 mph - N/A   Clear
9:55 PM 64.4 °F 51.8 °F 64% 30.14 in 10.0 mi SSE 8.1 mph - N/A   Clear
10:15 PM 64.4 °F 51.8 °F 64% 30.14 in 10.0 mi SSE 6.9 mph - N/A   Clear
10:35 PM 62.6 °F 51.8 °F 68% 30.13 in 10.0 mi SSE 8.1 mph - N/A   Clear
10:55 PM 62.6 °F 51.8 °F 68% 30.13 in 10.0 mi SSE 8.1 mph - N/A   Clear
11:15 PM 62.6 °F 51.8 °F 68% 30.12 in 10.0 mi SSE 8.1 mph - N/A   Clear
11:35 PM 62.6 °F 51.8 °F 68% 30.12 in 10.0 mi SSE 9.2 mph - N/A   Clear
11:55 PM 62.6 °F 51.8 °F 68% 30.11 in 10.0 mi SSE 10.4 mph - N/A   Clear